Lid_Strength_Index
-1 -1 1 2 6 7 8 8 5 6 6 4 4 5 5 5 6 7 1 -0 -0 -0 -1 -1 -1 -1 -1 -1 -1 -1 -1 -2 -2 -2 -2 -2 -2 -2 -2 -2 -2 -2 -2 -2 -2 -2 -1 -1 -1
-1 2 1 3 8 9 8 6 7 7 5 4 4 4 5 6 3 2 1 -0 -0 -1 -1 -1 -1 -1 -1 -1 -1 -1 -2 -2 -2 -2 -2 -2 -2 -2 -2 -2 -2 -2 -2 -2 -2 -2 -2 -1 -1
1 1 4 6 8 9 8 6 5 6 5 4 5 3 4 5 2 2 0 -0 -0 -1 -1 -2 -1 -1 -1 -1 -1 -1 -1 -2 -2 -2 -2 -2 -2 -2 -2 -2 -2 -2 -2 -2 -2 -2 -2 -1 -1
3 3 4 7 9 8 7 5 5 6 5 4 4 5 3 2 2 1 -0 -0 -0 -0 -1 -1 -1 -1 -1 -1 -1 -1 -1 -2 -2 -2 -2 -2 -2 -2 -2 -2 -2 -2 -2 -2 -2 -2 -1 -1 -1
2 4 8 9 9 7 6 5 4 6 6 5 4 5 4 2 1 0 0 -0 -0 -0 -1 -1 -1 -1 -1 -1 -1 -1 -1 -1 -2 -2 -2 -2 -2 -2 -2 -2 -2 -2 -2 -2 -1 -1 -1 -1 -1
6 5 9 10 9 7 5 5 5 6 6 5 5 4 4 1 1 0 -0 -0 -0 -0 -1 -1 -1 -1 -1 -1 -1 -1 -1 -1 -1 -2 -2 -2 -2 -2 -2 -2 -2 -2 -2 -2 -1 -1 -1 -1 -1
7 7 9 9 9 9 6 4 6 7 7 6 4 5 3 2 1 0 -0 -0 -1 -1 -1 -1 -1 -1 -1 -1 -1 -1 -1 -1 -1 -1 -1 -2 -2 -2 -2 -2 -2 -2 -2 -2 -1 -1 -1 -1 -1
5 7 9 9 10 9 5 4 6 7 7 4 4 5 5 2 1 0 0 0 -0 -0 -0 -1 -1 -1 -1 -1 -1 -1 -1 -1 -1 -1 -1 -1 -2 -2 -2 -2 -2 -2 -2 -1 -1 -1 -1 -1 -1
4 8 9 9 10 9 6 5 6 5 5 4 4 4 3 2 1 1 1 1 0 0 -0 -1 -1 -1 -1 -1 -1 -1 -1 -1 -1 -1 -1 -1 -2 -2 -2 -2 -2 -2 -2 -1 -1 -1 -1 -1 -1
6 8 8 6 7 7 6 5 6 6 6 5 4 3 3 2 2 2 2 2 1 1 0 -0 -1 -1 -1 -1 -2 -1 -1 -2 -2 -2 -2 -2 -2 -2 -2 -2 -2 -2 -1 -1 -1 -1 -1 -1 -1
5 8 7 6 5 6 6 5 4 6 6 5 4 4 3 3 2 2 2 2 1 0 0 -0 -1 -1 -1 -1 -1 -1 -1 -1 -1 -2 -2 -2 -2 -2 -1 -1 -1 -2 -1 -1 -1 -1 -1 -1 -1
7 5 5 5 5 5 6 5 5 5 6 4 4 3 3 3 2 2 2 1 1 1 0 -0 -1 -1 -1 -1 -0 -1 -0 -1 -1 -1 -2 -1 -0 -1 -1 -1 -1 -1 -1 -1 -1 -1 -1 -1 -1
7 6 5 5 5 5 5 5 5 4 4 4 4 3 3 2 2 1 1 1 0 1 0 -0 -1 -0 -1 -0 -1 -1 -0 -0 -1 -1 -1 -1 -0 -0 -1 -1 -1 -1 -1 -1 -1 -1 -1 -1 -1
6 6 6 5 6 5 6 6 5 4 3 3 3 3 3 3 2 1 1 1 1 0 0 -0 -0 -1 -1 -0 -1 -0 -1 -1 -1 -1 -1 -1 -1 -1 -1 -0 -1 -1 -1 -1 -1 -1 -1 -1 -1
6 8 7 6 6 6 5 8 7 4 3 4 3 3 3 2 2 2 1 1 0 0 -0 -0 -1 -1 -1 -1 -0 -0 -1 -1 -0 -1 -1 -1 -1 -1 -1 -0 -0 -1 -1 -2 -1 -1 -1 -0 -1
8 7 9 7 6 6 6 10 6 4 4 4 4 3 3 3 2 2 1 1 0 0 -0 -1 -0 -1 -1 -1 -1 -0 -1 -0 -1 -1 -1 -1 -1 -1 -1 -0 -0 -1 -1 -1 -0 -0 -0 -0 -0
8 11 9 8 5 6 7 9 6 4 4 4 4 3 3 3 2 1 1 1 0 -0 -0 -0 -0 -0 -1 -1 -1 -1 -1 -0 -0 -1 -1 -1 -1 -1 -1 -0 -1 -1 -1 -1 -0 -0 -0 0 0
11 10 10 9 6 6 7 8 6 5 5 5 4 4 3 3 3 2 1 1 0 -0 -0 -0 -0 -1 -1 -0 -0 -0 -0 -0 -0 -0 -0 -1 -1 -1 -0 -0 -1 -1 -0 -0 -0 -0 -0 0 0
9 9 9 8 6 7 7 8 6 6 6 5 5 4 4 3 2 2 1 1 0 0 0 -0 0 -1 0 1 1 1 1 1 0 -0 -1 -1 -1 -1 -0 -0 -0 -0 -0 -0 -1 -0 0 1 -0
10 10 10 7 7 7 7 8 6 5 6 5 5 4 4 3 3 2 1 1 1 1 0 0 -0 -0 0 0 0 0 0 0 0 -0 -0 -1 -1 -1 -0 -0 -0 -0 0 -0 -0 0 1 1 0
10 11 10 9 7 6 7 9 7 5 5 5 5 5 4 4 4 3 3 2 1 1 0 0 -0 -0 -0 -1 0 0 0 0 1 1 0 -0 -0 -1 -1 -1 -0 -0 -0 1 0 0 0 2 1
11 9 9 9 9 12 7 13 8 7 6 5 4 5 5 5 4 4 3 3 2 1 0 -0 -0 -0 0 -0 0 1 2 2 1 1 0 0 -0 -0 -1 -1 -1 -0 -0 -0 0 -0 0 1 2
9 7 8 8 9 10 10 11 9 7 7 6 5 4 5 5 5 4 4 3 2 1 1 0 -0 0 0 0 0 1 1 1 1 1 1 0 -0 -0 -0 -1 -1 -0 -0 -0 -0 -0 0 0 1
6 8 8 8 9 14 11 11 11 9 8 6 5 5 6 5 5 4 3 3 2 1 1 0 0 1 0 1 0 1 1 1 2 1 2 1 1 0 -0 -0 -1 -1 -0 -0 -0 -1 -0 0 0
7 10 14 15 16 15 10 11 10 7 6 6 5 5 6 5 5 4 3 2 1 1 1 1 1 1 1 1 1 1 1 1 1 1 1 1 1 1 0 -0 -0 -0 -0 -1 -1 -0 -0 0 1
9 10 14 18 16 14 9 12 10 6 5 5 5 4 4 3 3 3 2 2 2 1 1 1 2 2 1 1 1 1 0 1 1 0 1 1 1 0 -0 -0 -0 -1 -0 -0 -1 -0 -0 -0 0
9 11 8 12 11 13 11 9 8 6 6 5 6 5 5 4 3 3 3 2 2 1 1 1 2 2 1 1 1 1 0 0 1 0 -0 0 -0 0 -0 -0 -0 -0 -1 -0 -0 0 0 -0 -0
8 7 12 11 17 16 12 11 11 8 8 6 6 6 5 3 3 3 3 3 2 2 2 1 1 2 1 1 1 1 1 0 0 0 0 0 -0 -0 -0 -0 -0 -0 -0 -0 -0 -0 -0 0 -0
10 10 10 10 11 15 15 12 7 7 6 6 6 6 4 4 3 3 4 3 2 2 2 2 2 2 2 1 1 1 1 0 0 0 0 0 -0 -0 0 0 0 0 0 -0 -0 -0 -0 0 0
8 11 12 14 14 11 12 12 6 6 6 5 6 5 4 4 3 3 4 4 3 3 2 2 2 2 1 1 1 1 1 1 1 1 0 -0 0 -0 -0 -0 0 0 0 -0 0 0 0 1 1